Location: Lhoumois
(46.7056°N, 0.1207°W)
Time: 19:28:44
(UTC+00:00)

Daily predictions for brighter satellites

Satellite Brightness Start Highest point End
(mag) Time Altitude Azimuth Time Altitude Azimuth Time Altitude Azimuth
IRS-1A Rocket 4.4 19:45:44 10° SSE 19:51:26 70° ENE 19:57:18 10° N
Cosmos 1745 Rocket 4.5 19:45:31 10° N 19:51:26 44° ENE 19:57:15 10° SE
ERS-2 2.6 19:51:09 10° N 19:54:46 65° WNW 19:58:21 10° SSW
SPOT 3 Rocket 4.3 19:50:07 10° SE 19:54:50 38° ENE 19:59:34 10° N
CZ-4 R/B 4.4 19:53:35 10° SW 19:55:50 14° W 19:58:05 10° WNW
Cosmos 1844 4.2 19:51:24 10° S 19:56:38 38° ESE 20:01:50 10° NE
Cosmos 1743 Rocket 3.5 19:52:20 10° N 19:56:41 74° E 20:01:01 10° SSE
Resurs 1-3 3.7 19:52:33 10° SSE 19:56:52 62° ENE 20:01:13 10° N
Cosmos 968 Rocket 3.7 19:52:23 10° S 19:57:28 53° ESE 20:02:33 10° NNE
BREEZE-M DEB (TANK) 3.8 19:53:16 10° W 19:57:35 78° S 20:04:37 10° ESE
ATLAS 5 CENTAUR R/B 3.0 19:54:06 10° NNW 19:59:13 42° NE 20:05:15 10° ESE
BREEZE M DEB (TANK) 3.8 19:59:49 10° WSW 20:03:18 86° SSE 20:14:20 10° ENE
Cosmos 1486 Rocket 4.3 19:59:53 10° S 20:05:00 50° ESE 20:10:09 10° NNE
Intercosmos 25 Rocket 4.2 19:59:05 10° N 20:06:03 70° ENE 20:10:18 10° SSE
Cosmos 1500 Rocket 3.7 20:04:14 10° N 20:08:40 82° W 20:13:01 10° S
IGS 5A 4.0 20:04:51 10° SE 20:08:43 41° ENE 20:12:38 10° N
Cosmos 1833 Rocket 4.4 20:04:42 10° N 20:08:50 20° NE 20:12:57 10° E
Cosmos 2221 3.4 20:06:34 10° SSW 20:10:46 54° WNW 20:15:03 10° N
S3M 4.2 20:05:23 10° SSE 20:11:34 55° E 20:17:44 10° NNE
BREEZE-M R/B 2.3 20:09:13 10° SW 20:11:49 36° SSE 20:14:06 10° E
USA 186 3.8 20:11:13 10° SSW 20:13:13 20° W 20:15:07 10° NW
Cosmos 1666 Rocket 4.5 20:12:34 10° N 20:16:33 32° ENE 20:19:58 13° SE
FALCON 9 DEB 4.2 20:14:51 10° WNW 20:17:34 30° SW 20:20:03 11° SSE
Cosmos 1933 3.7 20:18:07 10° SSE 20:21:57 43° E 20:25:48 10° NNE
FALCON 9 DEB 4.5 20:21:13 10° W 20:23:47 25° SW 20:26:04 11° SSE
USA 245 4.0 20:23:48 14° E 20:24:33 15° ENE 20:26:01 10° NNE
Cosmos 1242 Rocket 3.1 20:24:07 10° SSE 20:27:28 38° E 20:30:48 10° NNE
OBJECT-B 2.9 20:25:05 10° SSW 20:27:50 25° W 20:30:36 10° NW
Cosmos 1553 Rocket 4.1 20:24:04 10° SSW 20:30:11 79° W 20:36:27 10° N
Cosmos 1437 Rocket 2.8 20:27:31 10° SSW 20:31:23 81° W 20:35:21 10° N
BREEZE M DEB (TANK) 2.9 20:25:06 10° W 20:31:30 56° N 20:34:00 10° ENE
FALCON 9 DEB 4.3 20:30:00 10° WNW 20:32:39 27° SW 20:34:36 15° SSE
Resurs 01 Rocket 1.6 20:29:46 10° SSE 20:34:14 88° ENE 20:38:42 10° NNW
OE (NEXTSAT) 4.2 20:33:34 10° W 20:37:02 81° S 20:39:58 14° E
Spot 2 Rocket 4.1 20:34:12 16° SE 20:37:55 41° ENE 20:42:39 10° N
DELTA 2 R/B (1) 4.3 20:33:11 10° WSW 20:38:15 36° S 20:41:51 17° SE
SJ 16-02 3.5 20:38:19 10° E 20:38:19 10° E 20:38:34 10° E
Sich 1 3.0 20:34:38 10° N 20:38:58 87° ENE 20:43:00 12° S
COSMOS 2406 4.4 20:34:37 10° N 20:39:36 30° NE 20:43:43 14° ESE
Meteor 1-20 Rocket 4.2 20:36:22 10° N 20:42:03 84° ENE 20:47:11 12° SSE
Cosmos 2082 Rocket 4.0 20:38:03 10° N 20:42:03 19° NE 20:46:02 10° E
USA 306 4.4 20:38:20 10° NW 20:42:12 32° N 20:46:05 10° ENE
BREEZE-M DEB (TANK) 4.4 20:43:07 10° WSW 20:44:15 12° SSW 20:45:33 10° S
CZ-4C R/B 3.5 20:37:46 10° NNW 20:44:31 49° NE 20:51:18 14° ESE
Cosmos 1500 4.3 20:42:15 10° NNE 20:45:34 28° ENE 20:47:10 21° ESE
Cosmos 1782 3.2 20:43:16 17° SSE 20:46:01 43° E 20:49:50 10° NNE
ERS-1 Rocket 3.7 20:50:52 19° ESE 20:53:52 38° ENE 20:58:30 10° N
Cosmos 1503 Rocket 3.9 20:50:37 10° SSW 20:55:46 77° ESE 21:01:00 10° NNE
SPOT 5 3.7 20:52:52 20° SE 20:55:52 39° ENE 21:00:43 10° N
Intercosmos 24 4.2 20:54:25 10° SSW 20:58:14 59° W 21:01:46 10° N
USA 290 2.7 20:58:05 10° NNW 21:01:17 54° WSW 21:02:58 24° S
Cosmos 1151 Rocket 3.0 20:58:03 16° S 21:01:26 67° E 21:05:47 10° NNE
CREW DRAGON DEMO-1 DEB 4.4 21:00:27 10° WNW 21:02:49 27° N 21:04:38 14° ENE
Cosmos 1602 3.7 21:00:10 10° N 21:04:02 87° W 21:06:20 23° S
Terra 2.8 21:02:23 21° ESE 21:04:41 33° ENE 21:08:55 10° N
USA 307 4.2 21:03:42 10° NW 21:07:41 36° NNE 21:11:26 11° E
Cosmos 2278 Rocket 3.0 21:05:44 23° SE 21:07:58 31° ESE 21:12:52 10° NE
CZ-2C R/B 3.8 21:08:11 10° N 21:12:40 77° WNW 21:17:11 10° SSW
Cosmos 1515 Rocket 3.9 21:17:35 32° SE 21:19:11 47° E 21:23:25 10° NNE
SL-4 R/B 3.9 21:15:50 10° W 21:19:19 22° SW 21:21:08 18° SSW
X-37B 0.8 21:16:49 10° W 21:19:56 50° SSW 21:20:09 49° S
Cosmos 1844 Rocket 3.9 21:14:54 10° SW 21:20:12 44° NW 21:25:34 10° NNE
Cosmos 2084 3.5 21:17:53 20° S 21:20:28 49° SE 21:24:34 10° NE
SPOT 1/Viking Rocket 3.8 21:16:47 19° S 21:20:29 67° WSW 21:25:42 10° NNW
USA 308 4.1 21:17:11 10° NW 21:21:14 39° NNE 21:24:24 15° E
SWARM C 4.5 21:18:53 10° N 21:22:12 66° E 21:22:52 50° SE
SWARM A 4.1 21:18:59 10° N 21:22:19 69° E 21:23:01 49° SSE
ARIANE 5 R/B 2.5 21:20:40 29° SSE 21:22:51 85° WSW 21:27:12 10° NNW
Cosmos 1437 2.2 21:25:46 71° S 21:26:02 88° E 21:28:54 10° NNE
JB-3 4.1 21:22:23 10° NNE 21:26:20 76° ESE 21:27:56 34° S
Cosmos 1354 Rocket 4.3 21:21:54 10° SSW 21:27:07 69° WNW 21:32:22 10° NNE
Cosmos 1633 Rocket 3.5 21:24:30 10° NNW 21:28:50 57° W 21:31:22 23° SSW
Cosmos 1812 2.6 21:31:31 45° SSE 21:32:32 67° E 21:36:24 10° NNE
Cosmos 1470 Rocket 3.6 21:33:37 10° NNW 21:38:06 79° W 21:39:56 36° S
Cosmos 2184 Rocket 4.1 21:32:17 10° N 21:38:29 62° ENE 21:41:19 32° SE
Meteor 1-5 Rocket 4.0 21:34:12 10° N 21:39:40 82° E 21:42:00 35° SSE
Cosmos 1328 Rocket 4.0 21:36:49 18° SSW 21:39:57 61° W 21:44:22 10° N
NOSS 3-4 (A) 4.2 21:35:34 10° NW 21:42:19 56° NE 21:47:02 23° ESE
NOSS 3-4 (C) 4.2 21:35:41 10° NW 21:42:25 55° NE 21:47:09 23° ESE
ATLAS 5 CENTAUR R/B 2.9 21:38:34 10° NW 21:44:03 48° WSW 21:47:13 27° S
CARTOSAT-1 4.1 21:44:08 30° SSW 21:45:58 53° W 21:50:13 10° NNW
Cosmos 2074 Rocket 4.0 21:40:09 10° N 21:46:28 73° E 21:49:23 34° SSE
NOSS 3-3 (A) 3.9 21:45:36 10° SW 21:51:22 83° NW 21:58:02 10° NE
NOSS 3-3 (C) 3.9 21:45:42 10° SW 21:51:29 83° NW 21:58:08 10° NE
Cosmos 1666 2.4 21:48:00 10° N 21:51:46 85° E 21:52:11 69° SSE
Cosmos 1933 Rocket 3.4 21:48:19 10° N 21:52:41 84° W 21:53:49 49° S
Cosmos 1833 Rocket 2.6 21:47:51 10° NNW 21:53:33 87° WSW 21:55:42 40° SSE
Nadezhda 1 Rocket 4.3 21:51:52 35° SE 21:54:10 51° E 22:00:12 10° NNE
ATLAS 2AS CENTAUR R/B 3.6 21:48:41 10° NW 21:55:50 44° NE 22:00:32 19° E
Meteor 2-12 Rocket 4.5 21:50:45 10° N 21:56:47 64° ENE 21:59:02 39° SE
Cosmos 1743 4.4 21:53:53 10° NNE 21:56:52 21° ENE 21:56:52 21° ENE
BREEZE-M DEB (TANK) 3.0 21:56:50 10° WNW 21:57:57 29° NW 21:57:57 29° NW
BREEZE-M DEB (TANK) 4.4 21:52:10 10° W 22:01:26 49° NNW 22:04:22 10° ENE
Cosmos 1538 Rocket 4.0 21:56:49 10° NNW 22:02:13 82° WSW 22:03:56 45° SSE
USA 215 4.3 21:56:27 10° E 22:02:31 43° NNE 22:08:37 10° NW
USA 305 3.2 21:59:14 10° NW 22:03:28 60° NNE 22:04:41 42° E
Iridium 4 Rocket 3.8 22:01:48 32° S 22:04:33 79° W 22:10:30 10° N
Cosmos 1610 Rocket 4.5 22:02:23 10° N 22:08:32 69° E 22:10:38 42° SSE
Resurs 01 Rocket 4.4 22:10:35 10° W 22:11:21 10° W 22:12:06 10° WNW
Cosmos 158 Rocket 3.7 22:09:35 10° NNW 22:14:30 80° ENE 22:15:27 57° SE
Cosmos 1733 Rocket 4.4 22:12:09 10° NNE 22:15:48 26° ENE 22:16:02 25° ENE
SJ 16-02 1.3 22:15:15 57° SSW 22:16:07 88° WNW 22:20:36 10° NNE
Cosmos 2228 Rocket 2.9 22:17:34 68° S 22:18:06 83° E 22:22:34 10° N
Cosmos 1680 Rocket 4.0 22:14:55 10° NNW 22:20:07 51° ENE 22:21:27 41° ESE
Meteor 1-27 Rocket 3.7 22:18:38 47° SSE 22:20:19 72° E 22:26:13 10° NNE
USA 306 2.9 22:18:21 10° WNW 22:22:38 76° NNE 22:23:05 67° E
COSMOS 2406 3.6 22:18:42 10° NW 22:24:11 52° WSW 22:25:47 39° SSW
Cosmos 2082 Rocket 2.1 22:21:18 10° NNW 22:26:57 89° ENE 22:28:19 54° SSE
ERS-1 Rocket 4.4 22:30:51 23° SW 22:32:44 30° W 22:37:08 10° NW
H-2A R/B 4.4 22:28:59 10° N 22:32:59 44° WNW 22:34:16 34° WSW
CZ-4C R/B 3.3 22:26:15 10° NW 22:33:24 55° WSW 22:36:28 37° S
SPOT 5 4.4 22:32:05 23° SW 22:34:00 30° W 22:38:35 10° NNW
Cosmos 1271 Rocket 3.6 22:35:28 41° WSW 22:36:07 45° WNW 22:39:59 10° N
Terra 3.0 22:41:15 28° WSW 22:42:24 32° W 22:46:41 10° NNW
Meteor 1-11 Rocket 4.2 22:37:35 10° NNW 22:43:26 58° W 22:45:14 41° SSW
Okean 1 4.4 22:46:34 35° ENE 22:46:34 35° ENE 22:49:27 10° NNE
USA 307 3.0 22:43:42 10° WNW 22:47:31 69° W 22:47:31 69° W
Cosmos 1340 Rocket 2.9 22:45:54 10° NNW 22:49:40 74° NNW 22:49:40 74° NNW
Cosmos 2278 Rocket 3.1 22:47:29 16° SW 22:51:51 46° NW 22:57:19 10° NNE
Spot 4 3.7 22:53:27 71° ESE 22:53:51 77° ENE 22:58:44 10° N
Cosmos 923 Rocket 4.0 22:50:04 10° NNW 22:55:17 65° WSW 22:55:53 60° SW
Cosmos 1544 3.9 22:52:24 10° NNW 22:55:12 47° NW 22:55:12 47° NW
Cosmos 1862 Rocket 4.2 22:57:00 44° ENE 22:57:00 44° ENE 23:00:33 10° NNE
Cosmos 1898 Rocket 3.4 22:57:39 69° SE 22:58:00 72° ESE 23:03:20 10° NNE
Cosmos 1536 3.7 22:55:52 10° NNW 22:59:30 41° W 22:59:30 41° W
Cosmos 1869 Rocket 4.5 22:56:53 10° NNW 23:00:53 37° W 23:01:03 37° W
USA 308 3.5 22:57:11 10° WNW 23:00:29 49° W 23:00:29 49° W
Cosmos 2369 Rocket 3.5 23:03:28 26° E 23:03:28 26° E 23:07:27 10° NE
COBE Rocket 4.5 23:07:04 45° E 23:07:40 47° ENE 23:12:34 10° N
Meteor 2-9 Rocket 4.2 23:03:51 10° N 23:09:41 70° ENE 23:10:35 59° SE
SL-8 Rocket 3.9 23:03:49 10° N 23:10:12 84° E 23:11:34 58° SSE
Cosmos 1943 Rocket 2.3 23:11:55 56° ESE 23:11:59 56° ESE 23:17:28 10° NE
Cosmos 1975 3.7 23:08:59 10° N 23:12:12 43° NE 23:12:12 43° NE
Cosmos 2084 Rocket 4.1 23:08:55 10° NNW 23:13:03 48° NE 23:13:20 47° ENE
ALOS 2 2.7 23:16:05 69° NE 23:16:05 69° NE 23:20:14 10° N
DNEPR-1 R/B 4.2 23:19:56 59° ESE 23:19:56 59° ESE 23:24:43 10° NE
Cosmos 1707 Rocket 4.0 23:20:01 52° WNW 23:20:02 52° WNW 23:24:21 10° N
Cosmos 44 3.3 23:14:53 10° NW 23:20:22 87° NE 23:20:48 76° SE
Meteor 2-4 Rocket 4.2 23:20:31 46° ESE 23:20:58 47° E 23:26:23 10° NNE
Cosmos 990 Rocket 4.3 23:20:02 50° WSW 23:21:06 62° WNW 23:26:20 10° NNE
Okean 1-7 4.2 23:30:15 32° ENE 23:30:15 32° ENE 23:33:22 10° NNE
Cosmos 372 Rocket 4.2 23:30:36 54° E 23:30:36 54° E 23:35:16 10° NNE
Cosmos 1743 4.3 23:29:15 10° NNW 23:31:55 28° WNW 23:31:55 28° WNW
NOSS 3-4 (A) 4.4 23:26:38 10° NW 23:33:14 43° WSW 23:34:28 40° SW
NOSS 3-4 (C) 4.4 23:26:44 10° NW 23:33:21 43° WSW 23:34:35 40° SW
Meteor 1-18 Rocket 4.1 23:33:04 71° S 23:33:43 88° E 23:39:22 10° NNE
Cosmos 2112 Rocket 4.5 23:28:55 10° NNW 23:34:01 47° WSW 23:34:10 47° WSW
Cosmos 1238 Rocket 4.0 23:29:30 10° NNW 23:35:46 60° W 23:36:39 54° SW
SL-24 R/B - RUBIN 2 3.9 23:32:18 10° NW 23:37:29 66° WSW 23:37:29 66° WSW
Cosmos 864 Rocket 4.4 23:32:45 10° NNW 23:38:56 77° W 23:39:57 62° SSW
SeaSat 1 3.1 23:34:16 10° NE 23:38:19 41° E 23:38:19 41° E
Cosmos 2242 Rocket 4.2 23:40:22 48° ENE 23:40:22 48° ENE 23:44:05 10° NNE
Cosmos 1959 Rocket 4.4 23:35:34 10° NNW 23:41:47 71° W 23:42:51 59° SSW
USA 215 3.2 23:42:21 38° ESE 23:45:10 86° NE 23:51:44 10° NW
ATLAS 2AS CENTAUR R/B 2.8 23:39:55 10° NW 23:47:01 55° WSW 23:47:57 51° SSW
Cosmos 2297 4.0 23:45:50 48° WSW 23:47:13 63° WNW 23:52:53 10° NNE
Cosmos 1733 Rocket 4.4 23:49:47 10° NNW 23:53:07 30° WNW 23:53:07 30° WNW
Cosmos 2181 Rocket 4.3 23:52:11 46° WSW 23:53:38 56° WNW 23:59:42 10° N
SJ 16-02 4.1 23:53:30 10° WNW 23:55:26 13° NW 23:57:21 10° NNW
